{"data":{"norad_id":63082,"intl_designator":"2025-037F","name":"STARLINK-32933","alt_names":[],"object_type":"PAYLOAD","status":"ACTIVE","operator":null,"country":"US","launch_date":"2025-02-23","launch_site_code":"AFWTR","launch_vehicle":null,"mission":null,"orbit_class":"UNKNOWN","rcs_meters":null,"size_class":null,"mass_kg":null,"dimensions":null,"purposes":["comms"],"wikipedia_slug":null,"has_3d_model":false,"image_url":null,"decayed_at":null,"tle_current":{"epoch":"2026-05-25T03:25:10.949376Z","epoch_age_seconds":63065,"freshness":"FRESH","line1":"1 63082U 25037F   26145.14248784  .00006779  00000+0  57530-3 0  9993","line2":"2 63082  70.0003 161.6957 0004117 263.1446  96.9244 14.98333184 69996","mean_motion":14.98333184,"eccentricity":0.0004117,"inclination_deg":70.0003,"raan_deg":161.6957,"arg_perigee_deg":263.1446,"mean_anomaly_deg":96.9244,"bstar":0.0005753,"rev_number":6999,"period_min":96.106794895627,"perigee_km":569.184654345,"apogee_km":574.90743506401,"semimajor_km":6950.1830447045,"source":"CELESTRAK","updated_at":"2026-05-25T13:38:19.877778Z"}}}